When you browse on this site, cookies collect data to enhance your experience and personalize the content and advertising you see.
Visit our Privacy Policy to learn more. By continuing to use the site, you agree to this use of cookies and data.
  • In Slovakia
  • List of Countries
  • For 7 days
  • Water Temperature
  • Satellite Maps
  • Weather Map
  • Weather Widgets
  • user-avatar
    Login

    Hourly Weather Gugoly

    Today, 21 April, Sunday

    Time Temperature Precipitation Wind Pressure Humidity
    00:00 +5°C° 0 mm 3 mps 759 mmHg 73%
    01:00 +4°C° 0 mm 3 mps 759 mmHg 74%
    02:00 +4°C° 0 mm 3 mps 758 mmHg 75%
    03:00 +4°C° 0 mm 3 mps 758 mmHg 76%
    04:00 +3°C° 0 mm 3 mps 758 mmHg 77%
    05:00 +5°C° 0 mm 3 mps 758 mmHg 72%
    06:00 +7°C° 0 mm 3 mps 758 mmHg 67%
    07:00 +8°C° 0 mm 2 mps 758 mmHg 63%
    08:00 +10°C° 0 mm 2 mps 757 mmHg 57%
    09:00 +12°C° 0 mm 3 mps 757 mmHg 52%
    10:00 +14°C° 0 mm 3 mps 756 mmHg 46%
    11:00 +15°C° 0 mm 4 mps 756 mmHg 43%
    12:00 +16°C° 0 mm 5 mps 756 mmHg 40%
    13:00 +19°C° 0 mm 5 mps 755 mmHg 37%
    14:00 +17°C° 0 mm 6 mps 755 mmHg 39%
    15:00 +17°C° 0 mm 6 mps 754 mmHg 41%
    16:00 +16°C° 0 mm 6 mps 754 mmHg 43%
    17:00 +14°C° 0 mm 5 mps 754 mmHg 51%
    18:00 +12°C° 0 mm 4 mps 753 mmHg 60%
    19:00 +9°C° 0 mm 3 mps 753 mmHg 68%
    20:00 +8°C° 0 mm 3 mps 754 mmHg 73%
    21:00 +7°C° 0 mm 3 mps 754 mmHg 78%
    22:00 +6°C° 0 mm 2 mps 754 mmHg 82%
    23:00 +6°C° 0 mm 2 mps 754 mmHg 82%

    Tomorrow, 22 April, Monday

    Time Temperature Precipitation Wind Pressure Humidity
    00:00 +5°C° 0 mm 3 mps 754 mmHg 81%
    01:00 +4°C° 0 mm 3 mps 754 mmHg 80%
    02:00 +4°C° 0 mm 3 mps 754 mmHg 85%
    03:00 +4°C° 0 mm 3 mps 754 mmHg 89%
    04:00 +4°C° 0 mm 4 mps 754 mmHg 94%
    05:00 +5°C° 0 mm 4 mps 754 mmHg 89%
    06:00 +6°C° 0 mm 5 mps 755 mmHg 83%
    07:00 +7°C° 0 mm 5 mps 755 mmHg 78%
    08:00 +9°C° 0 mm 5 mps 755 mmHg 73%
    09:00 +11°C° 0 mm 6 mps 755 mmHg 68%
    10:00 +13°C° 0 mm 6 mps 755 mmHg 63%
    11:00 +14°C° 0 mm 6 mps 755 mmHg 59%
    12:00 +15°C° 0 mm 6 mps 755 mmHg 56%
    13:00 +16°C° 0 mm 6 mps 755 mmHg 53%
    14:00 +16°C° 0 mm 7 mps 755 mmHg 53%
    15:00 +16°C° 0 mm 7 mps 755 mmHg 54%
    16:00 +16°C° 0 mm 8 mps 755 mmHg 54%
    17:00 +15°C° 0 mm 7 mps 755 mmHg 57%
    18:00 +13°C° 0 mm 6 mps 755 mmHg 59%
    19:00 +12°C° 0 mm 5 mps 756 mmHg 62%
    20:00 +10°C° 0 mm 5 mps 756 mmHg 61%
    21:00 +9°C° 0 mm 6 mps 756 mmHg 60%
    22:00 +9°C° 0 mm 6 mps 756 mmHg 59%
    23:00 +8°C° 0 mm 6 mps 756 mmHg 58%

    Day after tomorrow, 23 April, Tuesday

    Time Temperature Precipitation Wind Pressure Humidity
    00:00 +8°C° 0 mm 6 mps 756 mmHg 57%
    01:00 +7°C° 0 mm 6 mps 756 mmHg 57%
    02:00 +7°C° 0 mm 6 mps 756 mmHg 57%
    03:00 +6°C° 0 mm 7 mps 756 mmHg 57%
    04:00 +6°C° 0 mm 7 mps 756 mmHg 57%
    05:00 +6°C° 0 mm 8 mps 756 mmHg 56%
    06:00 +7°C° 0 mm 9 mps 756 mmHg 55%
    07:00 +8°C° 0 mm 10 mps 756 mmHg 53%
    08:00 +9°C° 0 mm 10 mps 756 mmHg 50%
    09:00 +12°C° 0 mm 11 mps 755 mmHg 47%
    10:00 +13°C° 0 mm 11 mps 755 mmHg 44%
    11:00 +14°C° 0 mm 11 mps 755 mmHg 43%
    12:00 +14°C° 0 mm 11 mps 754 mmHg 43%
    13:00 +16°C° 0 mm 11 mps 754 mmHg 42%
    14:00 +16°C° 0 mm 11 mps 754 mmHg 43%
    15:00 +16°C° 0 mm 11 mps 753 mmHg 44%
    16:00 +16°C° 0 mm 10 mps 753 mmHg 45%
    17:00 +15°C° 0 mm 9 mps 753 mmHg 48%
    18:00 +13°C° 0 mm 8 mps 753 mmHg 51%
    19:00 +11°C° 0 mm 7 mps 752 mmHg 53%
    20:00 +11°C° 0 mm 8 mps 752 mmHg 53%
    21:00 +11°C° 0 mm 8 mps 752 mmHg 54%
    22:00 +11°C° 0 mm 8 mps 752 mmHg 54%
    23:00 +10°C° 0 mm 8 mps 752 mmHg 55%

    24 April, Wednesday

    Time Temperature Precipitation Wind Pressure Humidity
    00:00 +10°C° 0 mm 8 mps 752 mmHg 57%
    01:00 +10°C° 0 mm 8 mps 752 mmHg 59%
    02:00 +10°C° 0.1 mm 9 mps 751 mmHg 62%
    03:00 +8°C° 0.1 mm 9 mps 751 mmHg 66%
    04:00 +8°C° 0.1 mm 9 mps 751 mmHg 69%
    05:00 +8°C° 0 mm 9 mps 751 mmHg 71%
    06:00 +8°C° 0 mm 10 mps 751 mmHg 72%
    07:00 +9°C° 0 mm 10 mps 751 mmHg 73%
    08:00 +10°C° 0 mm 9 mps 751 mmHg 74%
    09:00 +10°C° 0 mm 9 mps 751 mmHg 75%
    10:00 +10°C° 0 mm 9 mps 751 mmHg 75%
    11:00 +13°C° 0 mm 9 mps 751 mmHg 70%
    12:00 +16°C° 0 mm 9 mps 751 mmHg 65%
    13:00 +18°C° 0 mm 8 mps 751 mmHg 59%
    14:00 +20°C° 0 mm 8 mps 750 mmHg 59%
    15:00 +20°C° 0 mm 7 mps 750 mmHg 59%
    16:00 +20°C° 0 mm 7 mps 750 mmHg 60%
    17:00 +19°C° 0 mm 6 mps 750 mmHg 63%
    18:00 +17°C° 0 mm 6 mps 750 mmHg 66%
    19:00 +16°C° 0 mm 5 mps 750 mmHg 70%
    20:00 +15°C° 0 mm 5 mps 751 mmHg 72%
    21:00 +15°C° 0 mm 5 mps 751 mmHg 74%
    22:00 +14°C° 0 mm 5 mps 751 mmHg 76%
    23:00 +14°C° 0 mm 5 mps 751 mmHg 79%

    25 April, Thursday

    Time Temperature Precipitation Wind Pressure Humidity
    00:00 +13°C° 0 mm 5 mps 751 mmHg 82%
    01:00 +12°C° 0 mm 4 mps 751 mmHg 85%
    02:00 +12°C° 0 mm 4 mps 751 mmHg 87%
    03:00 +12°C° 0 mm 5 mps 751 mmHg 90%
    04:00 +10°C° 0 mm 5 mps 751 mmHg 93%
    05:00 +12°C° 0 mm 5 mps 751 mmHg 89%
    06:00 +13°C° 0 mm 5 mps 751 mmHg 85%
    07:00 +14°C° 0 mm 5 mps 751 mmHg 82%
    08:00 +16°C° 0 mm 6 mps 751 mmHg 76%
    09:00 +19°C° 0 mm 6 mps 751 mmHg 70%
    10:00 +21°C° 0 mm 6 mps 751 mmHg 64%
    11:00 +22°C° 0 mm 6 mps 750 mmHg 60%
    12:00 +23°C° 0 mm 6 mps 750 mmHg 55%
    13:00 +24°C° 0 mm 6 mps 750 mmHg 50%
    14:00 +24°C° 0 mm 6 mps 749 mmHg 51%
    15:00 +24°C° 0 mm 6 mps 749 mmHg 52%
    16:00 +25°C° 0 mm 5 mps 749 mmHg 53%
    17:00 +22°C° 0.5 mm 5 mps 749 mmHg 60%
    18:00 +21°C° 0.5 mm 4 mps 748 mmHg 67%
    19:00 +19°C° 0.5 mm 4 mps 748 mmHg 74%
    20:00 +18°C° 0 mm 4 mps 748 mmHg 77%
    21:00 +17°C° 0 mm 4 mps 748 mmHg 80%
    22:00 +15°C° 0 mm 4 mps 748 mmHg 84%
    23:00 +17°C° 0 mm 4 mps 747 mmHg 82%

    26 April, Friday

    Time Temperature Precipitation Wind Pressure Humidity
    00:00 +17°C° 0 mm 4 mps 747 mmHg 81%
    01:00 +17°C° 0 mm 4 mps 747 mmHg 79%
    02:00 +17°C° 0 mm 4 mps 747 mmHg 81%
    03:00 +15°C° 0 mm 4 mps 747 mmHg 82%
    04:00 +15°C° 0 mm 4 mps 746 mmHg 83%
    05:00 +16°C° 0 mm 5 mps 746 mmHg 80%
    06:00 +17°C° 0 mm 5 mps 746 mmHg 77%
    07:00 +19°C° 0 mm 5 mps 746 mmHg 73%
    08:00 +21°C° 0 mm 6 mps 746 mmHg 67%
    09:00 +22°C° 0 mm 6 mps 745 mmHg 62%
    10:00 +24°C° 0 mm 6 mps 745 mmHg 56%
    11:00 +26°C° 0 mm 6 mps 745 mmHg 53%
    12:00 +27°C° 0 mm 6 mps 745 mmHg 49%
    13:00 +28°C° 0 mm 6 mps 745 mmHg 46%
    14:00 +27°C° 0 mm 6 mps 744 mmHg 48%
    15:00 +27°C° 0 mm 6 mps 744 mmHg 50%
    16:00 +26°C° 0 mm 6 mps 744 mmHg 51%
    17:00 +23°C° 0 mm 5 mps 744 mmHg 60%
    18:00 +21°C° 0 mm 5 mps 745 mmHg 68%
    19:00 +19°C° 0 mm 5 mps 745 mmHg 76%
    20:00 +18°C° 0.1 mm 4 mps 745 mmHg 82%
    21:00 +16°C° 0.1 mm 3 mps 746 mmHg 88%
    22:00 +14°C° 0.1 mm 3 mps 746 mmHg 94%
    23:00 +14°C° 0 mm 3 mps 746 mmHg 92%
    Show more